sat.trackr.live / text

‹ back to catalog

STARLINK-30365

NORAD 57734 · 2023-131C

PAYLOAD ACTIVE UNKNOWN

§ Identity

Operator
Country
US
Launch date
2023-09-01
Launch site
AFETR
Launch vehicle
Mass (kg)
RCS (m²)

Purposes: comms

External: N2YO · Heavens-Above · Gunter

§ Orbital elements

Epoch: 2026-05-25T04:20:59.572320Z

Period
94.27 min
Inclination
43.0033°
Eccentricity
0.0000795
Mean motion
15.27580298 rev/d
Perigee alt
482.5 km
Apogee alt
483.6 km
Semi-major
6,861.2 km
B*
4.1544e-5
RAAN
100.5422°
Arg perigee
278.0507°
Mean anomaly
82.0255°
Rev number
15,161

§ Raw data

STARLINK-303651 57734U 23131C   26145.18124505  .00000881  00000+0  41544-4 0  99982 57734  43.0033 100.5422 0000795 278.0507  82.0255 15.27580298151618

JSON: /api/v1/satellites/57734 · /tle

For live sub-satellite position, see the globe view (requires WebGL).

§ Visibility from observer

Set your observer location to see the next 7 days of passes ≥ 10°. The values pass through the URL so the page stays shareable.

No JS? Fill the form by hand. The geolocation button needs JavaScript.